,,,PA_Meas_PMT16A,,PR_Meas_QMR101_102,,RH_Meas_QMH101,,SR_Meas_QMS101,,TA_Meas_QMH101,,GenWind,,GenWind,
date,time,status,PA,status,PR,status,RH,status,SR,status,TA,status,DirAvg,status,SpdAvg,
2012-06-17, 00:00:04,VALID,1006.16,VALID,0,VALID,81.3544,VALID,0,VALID,26.8778,VALID,97,VALID,2.06797,
2012-06-17, 00:01:04,VALID,1006.13,VALID,0,VALID,81.0569,VALID,0,VALID,26.9362,VALID,80,VALID,1.95938,
2012-06-17, 00:02:04,VALID,1006.13,VALID,0,VALID,81.0645,VALID,0,VALID,26.9578,VALID,116,VALID,1.63672,
2012-06-17, 00:03:04,VALID,1006.15,VALID,0,VALID,80.9653,VALID,0,VALID,26.9557,VALID,80,VALID,1.44961,
2012-06-17, 00:04:04,VALID,1006.15,VALID,0,VALID,81.0645,VALID,0,VALID,26.8952,VALID,84,VALID,1.94844,
2012-06-17, 00:05:04,VALID,1006.15,VALID,0,VALID,81.0721,VALID,0,VALID,26.8952,VALID,77,VALID,1.27773,
2012-06-17, 00:06:04,VALID,1006.12,VALID,0,VALID,80.8814,VALID,0,VALID,26.9167,VALID,53,VALID,1.62539,
2012-06-17, 00:07:04,VALID,1006.18,VALID,0,VALID,80.8509,VALID,0,VALID,26.9362,VALID,98,VALID,1.11484,
2012-06-17, 00:08:04,VALID,1006.17,VALID,0,VALID,81.0034,VALID,0,VALID,26.8952,VALID,81,VALID,1.43438,
2012-06-17, 00:09:04,VALID,1006.18,VALID,0,VALID,81.1865,VALID,0,VALID,26.8563,VALID,62,VALID,1.19453,
2012-06-17, 00:10:04,VALID,1006.19,VALID,0,VALID,81.2628,VALID,0,VALID,26.8583,VALID,83,VALID,0.841016,
2012-06-17, 00:11:04,VALID,1006.17,VALID,0,VALID,81.4993,VALID,0,VALID,26.7998,VALID,79,VALID,0.837891,
2012-06-17, 00:12:04,VALID,1006.12,VALID,0,VALID,81.6748,VALID,0,VALID,26.7414,VALID,82,VALID,1.03555,
2012-06-17, 00:13:04,VALID,1006.1,VALID,0,VALID,81.8426,VALID,0,VALID,26.7024,VALID,69,VALID,1.49336,
2012-06-17, 00:14:04,VALID,1006.1,VALID,0,VALID,81.9494,VALID,0,VALID,26.683,VALID,94,VALID,1.02031,
2012-06-17, 00:15:04,VALID,1006.05,VALID,0,VALID,82.1249,VALID,0,VALID,26.6655,VALID,88,VALID,0.774609,
2012-06-17, 00:16:04,VALID,1006,VALID,0,VALID,82.2012,VALID,0,VALID,26.605,VALID,73,VALID,1.26211,
2012-06-17, 00:17:04,VALID,1005.98,VALID,0,VALID,82.3232,VALID,0,VALID,26.5855,VALID,62,VALID,0.411719,
2012-06-17, 00:18:04,VALID,1005.94,VALID,0,VALID,82.4911,VALID,0,VALID,26.5466,VALID,70,VALID,0.885547,
2012-06-17, 00:19:04,VALID,1005.92,VALID,0,VALID,82.6437,VALID,0,VALID,26.5096,VALID,60,VALID,0.392188,
2012-06-17, 00:20:04,VALID,1005.91,VALID,0,VALID,82.8802,VALID,0,VALID,26.4687,VALID,8,VALID,0.427344,
2012-06-17, 00:21:04,VALID,1005.9,VALID,0,VALID,83.0022,VALID,0,VALID,26.4687,VALID,53,VALID,0.885547,
2012-06-17, 00:22:04,VALID,1005.91,VALID,0,VALID,82.987,VALID,0,VALID,26.4492,VALID,88,VALID,1.42266,
2012-06-17, 00:23:04,VALID,1005.95,VALID,0,VALID,83.0327,VALID,0,VALID,26.4492,VALID,40,VALID,0.705469,
2012-06-17, 00:24:04,VALID,1005.92,VALID,0,VALID,83.109,VALID,0,VALID,26.4277,VALID,11,VALID,0.846484,
2012-06-17, 00:25:04,VALID,1005.94,VALID,0,VALID,83.1777,VALID,0,VALID,26.3887,VALID,41,VALID,0.700781,
2012-06-17, 00:26:04,VALID,1005.96,VALID,0,VALID,83.2387,VALID,0,VALID,26.3907,VALID,58,VALID,0.796484,
2012-06-17, 00:27:04,VALID,1005.94,VALID,0,VALID,83.376,VALID,0,VALID,26.3498,VALID,60,VALID,1.21289,
2012-06-17, 00:28:04,VALID,1005.93,VALID,0,VALID,83.4142,VALID,0,VALID,26.3693,VALID,30,VALID,0.5375,
2012-06-17, 00:29:04,VALID,1005.98,VALID,0,VALID,83.3455,VALID,0,VALID,26.3498,VALID,36,VALID,0.5125,
2012-06-17, 00:30:04,VALID,1005.89,VALID,0,VALID,83.0098,VALID,0,VALID,26.3673,VALID,91,VALID,2.11016,
2012-06-17, 00:31:04,VALID,1005.91,VALID,0,VALID,82.6131,VALID,0,VALID,26.5056,VALID,82,VALID,0.951953,
2012-06-17, 00:32:04,VALID,1005.92,VALID,0,VALID,82.4987,VALID,0,VALID,26.5056,VALID,75,VALID,0.717188,
2012-06-17, 00:33:04,VALID,1005.89,VALID,0,VALID,82.4148,VALID,0,VALID,26.5251,VALID,73,VALID,1.09531,
2012-06-17, 00:34:04,VALID,1005.9,VALID,0,VALID,82.3232,VALID,0,VALID,26.5641,VALID,36,VALID,0.957812,
2012-06-17, 00:35:04,VALID,1005.88,VALID,0,VALID,82.2546,VALID,0.0815089,VALID,26.5231,VALID,43,VALID,0.838672,
2012-06-17, 00:36:04,VALID,1005.87,VALID,0,VALID,82.2241,VALID,0,VALID,26.5446,VALID,77,VALID,1.00039,
2012-06-17, 00:37:04,VALID,1005.85,VALID,0,VALID,82.2546,VALID,0,VALID,26.5641,VALID,92,VALID,1.69805,
2012-06-17, 00:38:04,VALID,1005.82,VALID,0,VALID,82.2622,VALID,0,VALID,26.5446,VALID,27,VALID,0.626953,
2012-06-17, 00:39:04,VALID,1005.8,VALID,0,VALID,82.3766,VALID,0,VALID,26.5056,VALID,343,VALID,0.0195313,
2012-06-17, 00:40:04,VALID,1005.79,VALID,0,VALID,82.6513,VALID,0,VALID,26.4687,VALID,343,VALID,0.229297,
2012-06-17, 00:41:04,VALID,1005.79,VALID,0,VALID,83.109,VALID,0,VALID,26.3693,VALID,66,VALID,1.24531,
2012-06-17, 00:42:04,VALID,1005.76,VALID,0,VALID,83.3684,VALID,0,VALID,26.3108,VALID,15,VALID,1.08125,
2012-06-17, 00:43:04,VALID,1005.7,VALID,0,VALID,83.7346,VALID,0,VALID,26.2134,VALID,14,VALID,0.457422,
2012-06-17, 00:44:04,VALID,1005.71,VALID,0,VALID,83.9406,VALID,0,VALID,26.0771,VALID,2,VALID,1.45938,
2012-06-17, 00:45:04,VALID,1005.68,VALID,0,VALID,84.8866,VALID,0,VALID,25.8823,VALID,305,VALID,1.03125,
2012-06-17, 00:46:04,VALID,1005.65,VALID,0,VALID,85.6342,VALID,0,VALID,25.7265,VALID,4,VALID,1.19375,
2012-06-17, 00:47:04,VALID,1005.63,VALID,0,VALID,86.6183,VALID,0,VALID,25.5902,VALID,358,VALID,1.19844,
2012-06-17, 00:48:04,VALID,1005.63,VALID,0,VALID,86.5496,VALID,0,VALID,25.5142,VALID,10,VALID,0.597266,
2012-06-17, 00:49:04,VALID,1005.64,VALID,0,VALID,87.0989,VALID,0,VALID,25.376,VALID,8,VALID,0.63125,
2012-06-17, 00:50:04,VALID,1005.64,VALID,0,VALID,87.6558,VALID,0,VALID,25.2981,VALID,3,VALID,0.849609,
2012-06-17, 00:51:04,VALID,1005.61,VALID,0,VALID,88.0449,VALID,0,VALID,25.2592,VALID,348,VALID,0.975781,
2012-06-17, 00:52:04,VALID,1005.59,VALID,0,VALID,88.1899,VALID,0,VALID,25.1813,VALID,347,VALID,0.765625,
2012-06-17, 00:53:04,VALID,1005.56,VALID,0,VALID,88.7086,VALID,0,VALID,25.1813,VALID,352,VALID,0.926172,
2012-06-17, 00:54:04,VALID,1005.56,VALID,0,VALID,88.6094,VALID,0,VALID,25.2397,VALID,56,VALID,0.475391,
2012-06-17, 00:55:04,VALID,1005.5,VALID,0,VALID,88.434,VALID,0,VALID,25.339,VALID,68,VALID,1.14727,
2012-06-17, 00:56:04,VALID,1005.54,VALID,0,VALID,87.8923,VALID,0,VALID,25.4169,VALID,58,VALID,0.221484,
2012-06-17, 00:57:04,VALID,1005.5,VALID,0,VALID,87.7169,VALID,0,VALID,25.4363,VALID,58,VALID,0.213281,
2012-06-17, 00:58:04,VALID,1005.54,VALID,0,VALID,87.5567,VALID,0,VALID,25.4363,VALID,58,VALID,0.443359,
2012-06-17, 00:59:04,VALID,1005.51,VALID,0,VALID,87.4041,VALID,0,VALID,25.4363,VALID,55,VALID,0.531641,
2012-06-17, 01:00:04,VALID,1005.52,VALID,0,VALID,87.5872,VALID,0,VALID,25.3779,VALID,18,VALID,0.557813,
2012-06-17, 01:01:04,VALID,1005.51,VALID,0,VALID,87.5567,VALID,0,VALID,25.339,VALID,11,VALID,0.422266,
2012-06-17, 01:02:04,VALID,1005.47,VALID,0,VALID,88.3729,VALID,0,VALID,25.339,VALID,359,VALID,1.16055,
2012-06-17, 01:03:04,VALID,1005.47,VALID,0,VALID,88.022,VALID,0,VALID,25.3565,VALID,347,VALID,0.887891,
2012-06-17, 01:04:04,VALID,1005.42,VALID,0,VALID,87.6329,VALID,0,VALID,25.4558,VALID,15,VALID,0.9125,
2012-06-17, 01:05:04,VALID,1005.43,VALID,0,VALID,87.2134,VALID,0,VALID,25.4344,VALID,359,VALID,0.426562,
2012-06-17, 01:06:04,VALID,1005.44,VALID,0,VALID,87.3583,VALID,0,VALID,25.3779,VALID,3,VALID,0.8875,
2012-06-17, 01:07:04,VALID,1005.45,VALID,0,VALID,87.755,VALID,0,VALID,25.3,VALID,4,VALID,0.557031,
2012-06-17, 01:08:04,VALID,1005.43,VALID,0,VALID,88.1136,VALID,0,VALID,25.2416,VALID,12,VALID,0.538281,
2012-06-17, 01:09:04,VALID,1005.41,VALID,0,VALID,88.6476,VALID,0,VALID,25.2007,VALID,12,VALID,0.786328,
2012-06-17, 01:10:04,VALID,1005.41,VALID,0,VALID,88.8536,VALID,0,VALID,25.2202,VALID,13,VALID,0.676953,
2012-06-17, 01:11:04,VALID,1005.38,VALID,0,VALID,89.1816,VALID,0.0815089,VALID,25.2592,VALID,43,VALID,0.993359,
2012-06-17, 01:12:04,VALID,1005.37,VALID,0,VALID,88.495,VALID,0,VALID,25.376,VALID,36,VALID,0.508594,
2012-06-17, 01:13:04,VALID,1005.34,VALID,0,VALID,87.816,VALID,0.0815089,VALID,25.4149,VALID,16,VALID,0.510156,
2012-06-17, 01:14:04,VALID,1005.35,VALID,0,VALID,87.7245,VALID,0.0815089,VALID,25.4344,VALID,12,VALID,0.404687,
2012-06-17, 01:15:04,VALID,1005.3,VALID,0,VALID,87.8618,VALID,0,VALID,25.4149,VALID,13,VALID,0.557813,
2012-06-17, 01:16:04,VALID,1005.25,VALID,0,VALID,87.8923,VALID,0,VALID,25.3955,VALID,25,VALID,0.572266,
2012-06-17, 01:17:04,VALID,1005.21,VALID,0,VALID,87.8618,VALID,0,VALID,25.4539,VALID,29,VALID,0.845703,
2012-06-17, 01:18:04,VALID,1005.18,VALID,0,VALID,87.7626,VALID,0.0815089,VALID,25.5688,VALID,59,VALID,1.13828,
2012-06-17, 01:19:04,VALID,1005.13,VALID,0,VALID,86.9692,VALID,0.0815089,VALID,25.6662,VALID,88,VALID,0.774609,
2012-06-17, 01:20:04,VALID,1005.13,VALID,0,VALID,86.4886,VALID,0,VALID,25.785,VALID,22,VALID,1.10898,
2012-06-17, 01:21:04,VALID,1005.06,VALID,0,VALID,86.1072,VALID,0,VALID,25.8414,VALID,62,VALID,0.567187,
2012-06-17, 01:22:04,VALID,1005.03,VALID,0,VALID,85.7028,VALID,0,VALID,25.9193,VALID,95,VALID,0.872266,
2012-06-17, 01:23:04,VALID,1005,VALID,0,VALID,85.4053,VALID,0.0815089,VALID,25.9797,VALID,28,VALID,1.38945,
2012-06-17, 01:24:04,VALID,1004.96,VALID,0,VALID,85.1536,VALID,0,VALID,26.0206,VALID,32,VALID,0.64375,
2012-06-17, 01:25:04,VALID,1004.97,VALID,0,VALID,84.9628,VALID,0,VALID,26.0206,VALID,44,VALID,0.620313,
2012-06-17, 01:26:04,VALID,1004.98,VALID,0,VALID,84.9171,VALID,0,VALID,26.0206,VALID,347,VALID,0.489062,
2012-06-17, 01:27:04,VALID,1004.93,VALID,0,VALID,84.9323,VALID,0,VALID,26.0206,VALID,71,VALID,0.573438,
2012-06-17, 01:28:04,VALID,1004.95,VALID,0,VALID,84.8789,VALID,0,VALID,26.0012,VALID,72,VALID,0.182031,
2012-06-17, 01:29:04,VALID,1004.92,VALID,0,VALID,84.9781,VALID,0,VALID,25.9622,VALID,38,VALID,0.7,
2012-06-17, 01:30:04,VALID,1004.94,VALID,0,VALID,85.2909,VALID,0,VALID,25.9427,VALID,21,VALID,0.999219,
2012-06-17, 01:31:04,VALID,1004.95,VALID,0,VALID,85.268,VALID,0,VALID,26.0031,VALID,64,VALID,1.46445,
2012-06-17, 01:32:04,VALID,1004.94,VALID,0,VALID,84.9705,VALID,0,VALID,25.9992,VALID,55,VALID,0.589063,
2012-06-17, 01:33:04,VALID,1004.92,VALID,0,VALID,84.7645,VALID,0,VALID,26.0401,VALID,4,VALID,1.51523,
2012-06-17, 01:34:04,VALID,1004.93,VALID,0,VALID,84.8408,VALID,0,VALID,26.0401,VALID,58,VALID,0.826172,
2012-06-17, 01:35:04,VALID,1004.91,VALID,0,VALID,84.7263,VALID,0,VALID,26.0596,VALID,22,VALID,1.07695,
2012-06-17, 01:36:04,VALID,1004.92,VALID,0,VALID,84.5661,VALID,0,VALID,26.0401,VALID,9,VALID,0.791016,
2012-06-17, 01:37:04,VALID,1004.89,VALID,0,VALID,85.0315,VALID,0,VALID,26.0206,VALID,34,VALID,1.86289,
2012-06-17, 01:38:04,VALID,1004.88,VALID,0,VALID,84.7263,VALID,0,VALID,25.9817,VALID,3,VALID,0.819922,
2012-06-17, 01:39:04,VALID,1004.87,VALID,0,VALID,85.5045,VALID,0,VALID,25.8843,VALID,48,VALID,1.77539,
2012-06-17, 01:40:04,VALID,1004.86,VALID,0,VALID,85.7181,VALID,0,VALID,25.8648,VALID,21,VALID,0.755859,
2012-06-17, 01:41:04,VALID,1004.85,VALID,0,VALID,85.6418,VALID,0,VALID,25.8629,VALID,42,VALID,0.639844,
2012-06-17, 01:42:04,VALID,1004.83,VALID,0,VALID,85.4282,VALID,0,VALID,25.9232,VALID,12,VALID,0.746094,
2012-06-17, 01:43:04,VALID,1004.81,VALID,0,VALID,85.0468,VALID,0,VALID,25.9038,VALID,359,VALID,1.00937,
2012-06-17, 01:44:04,VALID,1004.79,VALID,0,VALID,85.3519,VALID,0,VALID,25.8064,VALID,8,VALID,0.843359,
2012-06-17, 01:45:04,VALID,1004.77,VALID,0,VALID,85.741,VALID,0,VALID,25.748,VALID,1,VALID,0.735156,
2012-06-17, 01:46:04,VALID,1004.77,VALID,0,VALID,86.0919,VALID,0,VALID,25.6895,VALID,7,VALID,1.09609,
2012-06-17, 01:47:04,VALID,1004.74,VALID,0,VALID,86.2674,VALID,0,VALID,25.6506,VALID,357,VALID,0.469141,
2012-06-17, 01:48:04,VALID,1004.73,VALID,0,VALID,86.7022,VALID,0,VALID,25.5921,VALID,353,VALID,0.570313,
2012-06-17, 01:49:04,VALID,1004.69,VALID,0,VALID,87.0074,VALID,0,VALID,25.6311,VALID,76,VALID,1.14141,
2012-06-17, 01:50:04,VALID,1004.67,VALID,0,VALID,86.7404,VALID,0,VALID,25.709,VALID,90,VALID,1.07813,
2012-06-17, 01:51:04,VALID,1004.7,VALID,0,VALID,86.3666,VALID,0,VALID,25.7674,VALID,79,VALID,1.57969,
2012-06-17, 01:52:04,VALID,1004.72,VALID,0,VALID,85.9927,VALID,0,VALID,25.8453,VALID,76,VALID,1.16797,
2012-06-17, 01:53:04,VALID,1004.75,VALID,0,VALID,85.7486,VALID,0,VALID,25.8823,VALID,95,VALID,0.813281,
2012-06-17, 01:54:04,VALID,1004.77,VALID,0,VALID,85.6189,VALID,0,VALID,25.9038,VALID,83,VALID,0.431641,
2012-06-17, 01:55:04,VALID,1004.79,VALID,0,VALID,85.6494,VALID,0,VALID,25.9232,VALID,81,VALID,1.41367,
2012-06-17, 01:56:04,VALID,1004.82,VALID,0,VALID,85.3824,VALID,0,VALID,25.9817,VALID,98,VALID,0.991797,
2012-06-17, 01:57:04,VALID,1004.83,VALID,0,VALID,85.2451,VALID,0,VALID,26.0012,VALID,83,VALID,0.976172,
2012-06-17, 01:58:04,VALID,1004.85,VALID,0,VALID,85.3901,VALID,0,VALID,26.0012,VALID,91,VALID,1.35898,
2012-06-17, 01:59:04,VALID,1004.86,VALID,0,VALID,85.3901,VALID,0,VALID,26.0401,VALID,86,VALID,1.1957,
2012-06-17, 02:00:04,VALID,1004.87,VALID,0,VALID,85.7181,VALID,0,VALID,26.0596,VALID,88,VALID,2.14727,
2012-06-17, 02:01:04,VALID,1004.89,VALID,0,VALID,85.6494,VALID,0.0815089,VALID,26.116,VALID,78,VALID,2.03633,
2012-06-17, 02:02:04,VALID,1004.92,VALID,0,VALID,85.5808,VALID,0,VALID,26.1375,VALID,92,VALID,1.80977,
2012-06-17, 02:03:04,VALID,1004.93,VALID,0,VALID,85.4358,VALID,0,VALID,26.116,VALID,95,VALID,1.85547,
2012-06-17, 02:04:04,VALID,1004.92,VALID,0,VALID,85.3748,VALID,0,VALID,26.0966,VALID,111,VALID,1.48125,
2012-06-17, 02:05:04,VALID,1004.95,VALID,0,VALID,85.3672,VALID,0,VALID,26.0576,VALID,84,VALID,1.70898,
2012-06-17, 02:06:04,VALID,1004.9,VALID,0,VALID,85.6418,VALID,0,VALID,26.0791,VALID,75,VALID,1.38789,
2012-06-17, 02:07:04,VALID,1004.98,VALID,0,VALID,85.7944,VALID,0,VALID,26.0596,VALID,82,VALID,2.38594,
2012-06-17, 02:08:04,VALID,1004.98,VALID,0,VALID,85.9393,VALID,0,VALID,26.0187,VALID,87,VALID,1.55195,
2012-06-17, 02:09:04,VALID,1005,VALID,0,VALID,86.275,VALID,0.0815089,VALID,26.0381,VALID,87,VALID,2.32656,
2012-06-17, 02:10:04,VALID,1005,VALID,0,VALID,86.2369,VALID,0.0815089,VALID,26.0381,VALID,99,VALID,1.81562,
2012-06-17, 02:11:04,VALID,1005.03,VALID,0,VALID,86.2445,VALID,0.0815089,VALID,25.9972,VALID,106,VALID,1.79805,
2012-06-17, 02:12:04,VALID,1005.06,VALID,0,VALID,86.1987,VALID,0.0815089,VALID,26.0187,VALID,86,VALID,1.99844,
2012-06-17, 02:13:04,VALID,1005.05,VALID,0,VALID,86.0156,VALID,0,VALID,26.0187,VALID,102,VALID,3.04375,
2012-06-17, 02:14:04,VALID,1005.07,VALID,0,VALID,85.7944,VALID,0.0815089,VALID,26.0576,VALID,119,VALID,2.06836,
2012-06-17, 02:15:04,VALID,1005.1,VALID,0,VALID,85.3824,VALID,0,VALID,26.0791,VALID,104,VALID,1.97461,
2012-06-17, 02:16:04,VALID,1005.12,VALID,0,VALID,85.2222,VALID,0,VALID,26.0576,VALID,97,VALID,1.88906,
2012-06-17, 02:17:04,VALID,1005.14,VALID,0,VALID,85.0849,VALID,0,VALID,26.0381,VALID,106,VALID,1.51719,
2012-06-17, 02:18:04,VALID,1005.15,VALID,0,VALID,85.0162,VALID,0.0815089,VALID,26.0381,VALID,83,VALID,1.49219,
2012-06-17, 02:19:04,VALID,1005.16,VALID,0,VALID,85.0925,VALID,0.0815089,VALID,25.9992,VALID,121,VALID,2.40313,
2012-06-17, 02:20:04,VALID,1005.2,VALID,0,VALID,84.8408,VALID,0,VALID,25.9797,VALID,88,VALID,1.9875,
2012-06-17, 02:21:04,VALID,1005.15,VALID,0,VALID,84.2839,VALID,0,VALID,26.0187,VALID,110,VALID,2,
2012-06-17, 02:22:04,VALID,1005.16,VALID,0,VALID,84.0703,VALID,0,VALID,25.9992,VALID,90,VALID,1.34023,
2012-06-17, 02:23:04,VALID,1005.16,VALID,0,VALID,83.727,VALID,0,VALID,26.0187,VALID,117,VALID,1.41133,
2012-06-17, 02:24:04,VALID,1005.19,VALID,0,VALID,83.3379,VALID,0,VALID,26.0381,VALID,93,VALID,3.17617,
2012-06-17, 02:25:04,VALID,1005.14,VALID,0,VALID,83.0022,VALID,0.0815089,VALID,26.0751,VALID,89,VALID,1.36406,
2012-06-17, 02:26:04,VALID,1005.16,VALID,0,VALID,82.8649,VALID,0,VALID,26.0966,VALID,129,VALID,1.86133,
2012-06-17, 02:27:04,VALID,1005.16,VALID,0,VALID,82.5369,VALID,0.0815089,VALID,26.0966,VALID,117,VALID,2.08359,
2012-06-17, 02:28:04,VALID,1005.14,VALID,0,VALID,82.2851,VALID,0.0815089,VALID,26.1355,VALID,128,VALID,2.1543,
2012-06-17, 02:29:04,VALID,1005.15,VALID,0,VALID,82.3004,VALID,0,VALID,26.1765,VALID,96,VALID,1.19102,
2012-06-17, 02:30:04,VALID,1005.2,VALID,0,VALID,82.4072,VALID,0.0815089,VALID,26.1355,VALID,118,VALID,1.46367,
2012-06-17, 02:31:04,VALID,1005.19,VALID,0,VALID,82.4758,VALID,0.0815089,VALID,26.116,VALID,96,VALID,1.82617,
2012-06-17, 02:32:04,VALID,1005.19,VALID,0,VALID,82.5979,VALID,0.0815089,VALID,26.0946,VALID,107,VALID,1.71719,
2012-06-17, 02:33:04,VALID,1005.2,VALID,0,VALID,82.4148,VALID,0.0815089,VALID,26.1375,VALID,80,VALID,1.57031,
2012-06-17, 02:34:04,VALID,1005.21,VALID,0,VALID,82.4301,VALID,0.0815089,VALID,26.0966,VALID,92,VALID,1.40859,
2012-06-17, 02:35:04,VALID,1005.23,VALID,0,VALID,82.4453,VALID,0.0815089,VALID,26.0966,VALID,93,VALID,1.41875,
2012-06-17, 02:36:04,VALID,1005.24,VALID,0,VALID,82.5292,VALID,0.0815089,VALID,26.118,VALID,88,VALID,1.5957,
2012-06-17, 02:37:04,VALID,1005.19,VALID,0,VALID,82.7123,VALID,0,VALID,26.0576,VALID,75,VALID,1.52734,
2012-06-17, 02:38:04,VALID,1005.27,VALID,0,VALID,82.9946,VALID,0,VALID,26.0167,VALID,88,VALID,1.35,
2012-06-17, 02:39:04,VALID,1005.25,VALID,0,VALID,83.1472,VALID,0,VALID,26.0206,VALID,91,VALID,1.0668,
2012-06-17, 02:40:04,VALID,1005.25,VALID,0,VALID,83.1014,VALID,0,VALID,26.0206,VALID,84,VALID,1.34414,
2012-06-17, 02:41:04,VALID,1005.23,VALID,0,VALID,82.9259,VALID,0,VALID,26.0596,VALID,133,VALID,2.39375,
2012-06-17, 02:42:04,VALID,1005.24,VALID,0,VALID,82.7199,VALID,0,VALID,26.0985,VALID,78,VALID,1.63203,
2012-06-17, 02:43:04,VALID,1005.25,VALID,0,VALID,82.4606,VALID,0,VALID,26.1375,VALID,90,VALID,1.81523,
2012-06-17, 02:44:04,VALID,1005.33,VALID,0,VALID,82.3461,VALID,0,VALID,26.1765,VALID,99,VALID,1.87852,
2012-06-17, 02:45:04,VALID,1005.34,VALID,0,VALID,82.369,VALID,0,VALID,26.1355,VALID,96,VALID,1.62383,
2012-06-17, 02:46:04,VALID,1005.32,VALID,0,VALID,82.4072,VALID,0,VALID,26.157,VALID,106,VALID,0.974219,
2012-06-17, 02:47:04,VALID,1005.36,VALID,0,VALID,82.6055,VALID,0,VALID,26.157,VALID,111,VALID,1.00234,
2012-06-17, 02:48:04,VALID,1005.38,VALID,0,VALID,82.4911,VALID,0,VALID,26.1375,VALID,103,VALID,1.16875,
2012-06-17, 02:49:04,VALID,1005.39,VALID,0,VALID,82.4606,VALID,0,VALID,26.157,VALID,119,VALID,1.13711,
2012-06-17, 02:50:04,VALID,1005.39,VALID,0,VALID,82.5979,VALID,0,VALID,26.1375,VALID,102,VALID,1.47969,
2012-06-17, 02:51:04,VALID,1005.38,VALID,0,VALID,82.4529,VALID,0,VALID,26.159,VALID,96,VALID,2.26992,
2012-06-17, 02:52:04,VALID,1005.39,VALID,0,VALID,82.1402,VALID,0,VALID,26.1979,VALID,96,VALID,2.00703,
2012-06-17, 02:53:04,VALID,1005.39,VALID,0,VALID,81.8579,VALID,0,VALID,26.2134,VALID,95,VALID,2.66172,
2012-06-17, 02:54:04,VALID,1005.41,VALID,0,VALID,82.0105,VALID,0,VALID,26.2544,VALID,127,VALID,1.0082,
2012-06-17, 02:55:04,VALID,1005.48,VALID,0,VALID,82.0028,VALID,0,VALID,26.2134,VALID,84,VALID,1.0293,
2012-06-17, 02:56:04,VALID,1005.49,VALID,0,VALID,81.9037,VALID,0,VALID,26.2329,VALID,107,VALID,1.38672,
2012-06-17, 02:57:04,VALID,1005.51,VALID,0,VALID,81.9037,VALID,0,VALID,26.2544,VALID,99,VALID,0.852734,
2012-06-17, 02:58:04,VALID,1005.54,VALID,0,VALID,81.2094,VALID,0,VALID,26.2933,VALID,94,VALID,2.23203,
2012-06-17, 02:59:04,VALID,1005.57,VALID,0,VALID,81.034,VALID,0,VALID,26.3518,VALID,87,VALID,1.85273,
2012-06-17, 03:00:04,VALID,1005.64,VALID,0,VALID,81.0263,VALID,0,VALID,26.3518,VALID,79,VALID,1.27891,
2012-06-17, 03:01:04,VALID,1005.63,VALID,0,VALID,81.1713,VALID,0,VALID,26.3518,VALID,96,VALID,1.30586,
2012-06-17, 03:02:04,VALID,1005.68,VALID,0,VALID,81.1331,VALID,0,VALID,26.3323,VALID,98,VALID,1.72422,
2012-06-17, 03:03:04,VALID,1005.69,VALID,0,VALID,81.2247,VALID,0,VALID,26.3518,VALID,106,VALID,0.896094,
2012-06-17, 03:04:04,VALID,1005.68,VALID,0,VALID,81.034,VALID,0,VALID,26.3518,VALID,96,VALID,1.5375,
2012-06-17, 03:05:04,VALID,1005.69,VALID,0,VALID,80.8509,VALID,0,VALID,26.3108,VALID,112,VALID,1.83086,
2012-06-17, 03:06:04,VALID,1005.64,VALID,0,VALID,80.1872,VALID,0,VALID,26.3518,VALID,98,VALID,1.53672,
2012-06-17, 03:07:04,VALID,1005.66,VALID,0,VALID,79.943,VALID,0,VALID,26.4102,VALID,100,VALID,2.01289,
2012-06-17, 03:08:04,VALID,1005.68,VALID,0,VALID,79.348,VALID,0,VALID,26.5076,VALID,112,VALID,2.21055,
2012-06-17, 03:09:04,VALID,1005.66,VALID,0,VALID,78.6843,VALID,0,VALID,26.5661,VALID,95,VALID,2.58203,
2012-06-17, 03:10:04,VALID,1005.6,VALID,0,VALID,78.3639,VALID,0,VALID,26.5855,VALID,127,VALID,1.99609,
2012-06-17, 03:11:04,VALID,1005.64,VALID,0,VALID,78.8292,VALID,0,VALID,26.5855,VALID,93,VALID,1.0125,
2012-06-17, 03:12:04,VALID,1005.62,VALID,0,VALID,78.463,VALID,0,VALID,26.5855,VALID,125,VALID,1.71289,
2012-06-17, 03:13:04,VALID,1005.61,VALID,0,VALID,78.2418,VALID,0,VALID,26.605,VALID,107,VALID,2.10273,
2012-06-17, 03:14:04,VALID,1005.63,VALID,0,VALID,78.4554,VALID,0,VALID,26.5855,VALID,89,VALID,1.90313,
2012-06-17, 03:15:04,VALID,1005.6,VALID,0,VALID,78.3181,VALID,0,VALID,26.5446,VALID,95,VALID,1.51992,
2012-06-17, 03:16:04,VALID,1005.61,VALID,0,VALID,78.0511,VALID,0,VALID,26.5661,VALID,116,VALID,1.34961,
2012-06-17, 03:17:04,VALID,1005.62,VALID,0,VALID,77.9748,VALID,0,VALID,26.5855,VALID,112,VALID,1.83398,
2012-06-17, 03:18:04,VALID,1005.6,VALID,0,VALID,77.5094,VALID,0,VALID,26.644,VALID,99,VALID,2.50312,
2012-06-17, 03:19:04,VALID,1005.62,VALID,0,VALID,77.7612,VALID,0,VALID,26.6635,VALID,106,VALID,1.57031,
2012-06-17, 03:20:04,VALID,1005.61,VALID,0,VALID,77.723,VALID,0,VALID,26.685,VALID,91,VALID,2.29336,
2012-06-17, 03:21:04,VALID,1005.6,VALID,0,VALID,77.9061,VALID,0,VALID,26.6635,VALID,123,VALID,1.50234,
2012-06-17, 03:22:04,VALID,1005.62,VALID,0,VALID,77.868,VALID,0,VALID,26.644,VALID,91,VALID,2.87266,
2012-06-17, 03:23:04,VALID,1005.61,VALID,0,VALID,78.0206,VALID,0,VALID,26.683,VALID,87,VALID,1.36328,
2012-06-17, 03:24:04,VALID,1005.59,VALID,0,VALID,78.1579,VALID,0,VALID,26.644,VALID,84,VALID,1.87188,
2012-06-17, 03:25:04,VALID,1005.65,VALID,0,VALID,78.4096,VALID,0,VALID,26.644,VALID,122,VALID,1.85781,
2012-06-17, 03:26:04,VALID,1005.63,VALID,0,VALID,78.7072,VALID,0,VALID,26.6635,VALID,123,VALID,2.01641,
2012-06-17, 03:27:04,VALID,1005.65,VALID,0,VALID,78.6309,VALID,0,VALID,26.7004,VALID,99,VALID,1.44492,
2012-06-17, 03:28:04,VALID,1005.65,VALID,0,VALID,78.8674,VALID,0,VALID,26.6809,VALID,114,VALID,1.33125,
2012-06-17, 03:29:04,VALID,1005.67,VALID,0,VALID,79.142,VALID,0,VALID,26.7219,VALID,116,VALID,3.47422,
2012-06-17, 03:30:04,VALID,1005.68,VALID,0,VALID,79.2946,VALID,0,VALID,26.7609,VALID,112,VALID,2.33633,
2012-06-17, 03:31:04,VALID,1005.64,VALID,0,VALID,79.4624,VALID,0,VALID,26.7414,VALID,93,VALID,1.81094,
2012-06-17, 03:32:04,VALID,1005.67,VALID,0,VALID,79.4395,VALID,0,VALID,26.7434,VALID,123,VALID,2.64648,
2012-06-17, 03:33:04,VALID,1005.63,VALID,0,VALID,79.4243,VALID,0,VALID,26.7414,VALID,125,VALID,2.14063,
2012-06-17, 03:34:04,VALID,1005.63,VALID,0,VALID,79.5921,VALID,0,VALID,26.7629,VALID,97,VALID,1.66523,
2012-06-17, 03:35:04,VALID,1005.67,VALID,0,VALID,79.676,VALID,0,VALID,26.7414,VALID,114,VALID,1.62344,
2012-06-17, 03:36:04,VALID,1005.63,VALID,0,VALID,79.7447,VALID,0,VALID,26.7219,VALID,117,VALID,1.31406,
2012-06-17, 03:37:04,VALID,1005.68,VALID,0,VALID,79.9278,VALID,0,VALID,26.7434,VALID,93,VALID,0.943359,
2012-06-17, 03:38:04,VALID,1005.66,VALID,0,VALID,80.1414,VALID,0,VALID,26.6635,VALID,113,VALID,2.17148,
2012-06-17, 03:39:04,VALID,1005.68,VALID,0,VALID,80.2024,VALID,0,VALID,26.6809,VALID,101,VALID,1.44023,
2012-06-17, 03:40:04,VALID,1005.66,VALID,0,VALID,80.2558,VALID,0.0815089,VALID,26.6614,VALID,123,VALID,1.20859,
2012-06-17, 03:41:04,VALID,1005.7,VALID,0,VALID,80.2558,VALID,0,VALID,26.6614,VALID,127,VALID,1.25273,
2012-06-17, 03:42:04,VALID,1005.67,VALID,0,VALID,80.6678,VALID,0,VALID,26.6225,VALID,150,VALID,0.865234,
2012-06-17, 03:43:04,VALID,1005.69,VALID,0,VALID,80.7212,VALID,0.0815089,VALID,26.6245,VALID,106,VALID,1.225,
2012-06-17, 03:44:04,VALID,1005.72,VALID,0,VALID,81.1179,VALID,0.0815089,VALID,26.603,VALID,134,VALID,1.08867,
2012-06-17, 03:45:04,VALID,1005.66,VALID,0,VALID,81.4002,VALID,0.0815089,VALID,26.5835,VALID,123,VALID,1.4668,